Location: Mentone
(34.5413°N, 85.5351°W)
Time: 19:38:22
(UTC-05:00)

Vanguard 2 Rocket - Visible Passes

Search period start: 24 July 2014 00:00
Search period end: 03 August 2014 00:00
Orbit: 553 x 3337 km, 32.9° (Epoch: 23 July)

Date Brightness Start Highest point End Pass type
(mag) Time Alt. Az. Time Alt. Az. Time Alt. Az.
24 Jul 9.6 03:28:49 21° S 03:36:18 34° SE 03:51:48 10° E visible
25 Jul 9.7 02:33:46 20° SSE 02:37:33 22° SE 02:48:49 10° E visible
25 Jul 9.6 04:39:40 14° SW 04:51:43 58° SSE 05:11:02 10° ENE visible
26 Jul 10.1 01:38:42 12° SE 01:39:14 12° SE 01:43:17 10° ESE visible
26 Jul 9.3 03:44:36 25° SSW 03:52:07 46° SE 04:09:19 10° ENE visible
27 Jul 9.3 02:49:30 28° SSE 02:53:08 33° SE 03:07:09 10° E visible
27 Jul 9.4 04:55:24 12° WSW 05:08:07 70° SSE 05:28:01 10° E visible
28 Jul 9.7 01:54:24 21° SE 01:54:43 21° SE 02:04:14 10° E visible
28 Jul 9.1 04:00:18 26° SW 04:08:14 58° SSE 04:26:27 10° ENE visible
29 Jul 8.9 03:05:10 36° S 03:08:59 45° SE 03:24:38 10° E visible
29 Jul 9.4 05:11:30 10° WSW 05:24:48 79° SSE 05:44:59 10° E visible
30 Jul 9.2 02:10:02 31° SE 02:10:22 31° SE 02:22:32 10° E visible
30 Jul 9.0 04:15:56 23° SW 04:24:40 70° SSE 04:43:27 10° E visible
31 Jul 9.8 01:14:54 17° ESE 01:14:54 17° ESE 01:19:50 10° E visible
31 Jul 8.6 03:20:48 40° SSW 03:25:09 58° SSE 03:41:45 10° E visible
01 Aug 8.6 02:25:39 43° SSE 02:26:16 44° SE 02:40:00 10° E visible
01 Aug 9.0 04:31:33 18° WSW 04:41:22 79° SSE 05:00:25 10° E visible
02 Aug 9.3 01:30:31 26° ESE 01:30:31 26° ESE 01:38:09 10° E visible
02 Aug 8.6 03:36:25 37° SW 03:41:39 70° SSE 03:58:44 10° E visible
